Wetterdaten: Woche 10.12.18 - 16.12.18 (KW50)
Datum Zeit Temperatur Luftfeuchte Luftdruck Niederschlag Windrichtung Sonnenschein Solar Wind
10.12.2018 00:00 4,2 C 94 % 1015,0 hPa 0,2 l/m W-NW 0,00 h 0 W/m 14,2 km/h (3 Bft)
10.12.2018 01:00 3,9 C 93 % 1016,1 hPa 0,0 l/m W 0,00 h 0 W/m 18,8 km/h (3 Bft)
10.12.2018 02:00 3,3 C 94 % 1017,2 hPa 0,8 l/m W 0,00 h 0 W/m 13,0 km/h (3 Bft)
10.12.2018 03:00 3,0 C 94 % 1018,0 hPa 0,0 l/m W 0,00 h 0 W/m 15,2 km/h (3 Bft)
10.12.2018 04:00 2,6 C 93 % 1018,6 hPa 0,0 l/m W-NW 0,00 h 0 W/m 16,5 km/h (3 Bft)
10.12.2018 05:00 2,4 C 92 % 1019,0 hPa 0,0 l/m W-SW 0,00 h 0 W/m 18,0 km/h (3 Bft)
10.12.2018 06:00 2,4 C 92 % 1019,4 hPa 0,0 l/m W-SW 0,00 h 0 W/m 15,2 km/h (3 Bft)
10.12.2018 07:00 2,2 C 92 % 1020,0 hPa 0,0 l/m W-SW 0,00 h 5 W/m 11,8 km/h (2 Bft)
10.12.2018 08:00 2,1 C 92 % 1020,5 hPa 0,0 l/m W-SW 0,00 h 15 W/m 9,9 km/h (2 Bft)
10.12.2018 09:00 2,2 C 92 % 1021,2 hPa 0,0 l/m W-NW 0,25 h 86 W/m 9,4 km/h (2 Bft)
10.12.2018 10:00 3,4 C 89 % 1021,9 hPa 0,0 l/m W 0,42 h 160 W/m 12,8 km/h (3 Bft)
10.12.2018 11:00 3,0 C 90 % 1022,1 hPa 0,4 l/m W-NW 0,25 h 107 W/m 12,1 km/h (2 Bft)
10.12.2018 12:00 3,7 C 90 % 1021,8 hPa 0,0 l/m W-NW 0,58 h 262 W/m 23,5 km/h (4 Bft)
10.12.2018 13:00 3,8 C 85 % 1021,4 hPa 0,0 l/m W-NW 0,17 h 142 W/m 16,8 km/h (3 Bft)
10.12.2018 14:00 4,6 C 80 % 1021,1 hPa 0,0 l/m W 0,75 h 203 W/m 17,4 km/h (3 Bft)
10.12.2018 15:00 3,8 C 84 % 1021,0 hPa 0,0 l/m W 0,00 h 40 W/m 12,1 km/h (2 Bft)
10.12.2018 16:00 3,4 C 87 % 1021,2 hPa 0,0 l/m W 0,00 h 0 W/m 12,8 km/h (3 Bft)
10.12.2018 17:00 2,9 C 89 % 1021,2 hPa 0,0 l/m W-NW 0,00 h 0 W/m 12,1 km/h (2 Bft)
10.12.2018 18:00 2,7 C 88 % 1021,2 hPa 0,0 l/m W-NW 0,00 h 0 W/m 12,2 km/h (2 Bft)
10.12.2018 19:00 2,3 C 87 % 1021,3 hPa 0,0 l/m W 0,00 h 0 W/m 10,1 km/h (2 Bft)
10.12.2018 20:00 1,6 C 90 % 1021,4 hPa 0,0 l/m W-NW 0,00 h 0 W/m 16,5 km/h (3 Bft)
10.12.2018 21:00 1,2 C 94 % 1021,2 hPa 0,0 l/m W-NW 0,00 h 0 W/m 10,9 km/h (2 Bft)
10.12.2018 22:00 1,0 C 95 % 1021,7 hPa 0,0 l/m N-NO 0,00 h 0 W/m 3,4 km/h (1 Bft)
10.12.2018 23:00 0,7 C 95 % 1021,9 hPa 0,4 l/m W-NW 0,00 h 0 W/m 8,4 km/h (2 Bft)
11.12.2018 00:00 0,6 C 96 % 1021,8 hPa 2,4 l/m N-NW 0,00 h 0 W/m 8,2 km/h (2 Bft)
11.12.2018 01:00 0,1 C 96 % 1021,9 hPa 0,8 l/m N 0,00 h 0 W/m 0,0 km/h (0 Bft)
11.12.2018 02:00 -0,8 C 96 % 1022,3 hPa 0,4 l/m N 0,00 h 0 W/m 0,0 km/h (0 Bft)
11.12.2018 03:00 -1,5 C 96 % 1022,7 hPa 0,2 l/m N 0,00 h 0 W/m 0,0 km/h (0 Bft)
11.12.2018 04:00 -1,1 C 96 % 1022,9 hPa 0,2 l/m NW 0,00 h 0 W/m 1,1 km/h (0 Bft)
11.12.2018 05:00 -0,3 C 97 % 1023,1 hPa 0,0 l/m NW 0,00 h 0 W/m 3,9 km/h (1 Bft)
11.12.2018 06:00 -0,2 C 96 % 1023,2 hPa 0,0 l/m W-SW 0,00 h 0 W/m 8,2 km/h (2 Bft)
11.12.2018 07:00 -0,1 C 96 % 1023,2 hPa 0,0 l/m W 0,00 h 0 W/m 11,0 km/h (2 Bft)
11.12.2018 08:00 -0,0 C 95 % 1023,7 hPa 0,0 l/m W-NW 0,00 h 8 W/m 11,0 km/h (2 Bft)
11.12.2018 09:00 0,2 C 93 % 1023,6 hPa 0,0 l/m W 0,00 h 25 W/m 7,4 km/h (2 Bft)
11.12.2018 10:00 0,6 C 92 % 1023,7 hPa 0,0 l/m W 0,00 h 40 W/m 13,0 km/h (3 Bft)
11.12.2018 11:00 1,1 C 90 % 1023,4 hPa 0,0 l/m W 0,00 h 57 W/m 10,2 km/h (2 Bft)
11.12.2018 12:00 1,5 C 89 % 1023,1 hPa 0,0 l/m W 0,00 h 92 W/m 7,9 km/h (2 Bft)
11.12.2018 13:00 1,9 C 87 % 1022,6 hPa 0,0 l/m W-NW 0,08 h 150 W/m 13,7 km/h (3 Bft)
11.12.2018 14:00 2,1 C 86 % 1022,4 hPa 0,0 l/m W-NW 0,00 h 108 W/m 6,4 km/h (2 Bft)
11.12.2018 15:00 2,1 C 87 % 1022,4 hPa 0,0 l/m NW 0,67 h 83 W/m 7,5 km/h (2 Bft)
11.12.2018 16:00 1,5 C 86 % 1022,4 hPa 0,0 l/m W-NW 0,17 h 10 W/m 5,5 km/h (1 Bft)
11.12.2018 17:00 0,8 C 88 % 1022,6 hPa 0,0 l/m W-NW 0,00 h 0 W/m 1,7 km/h (1 Bft)
11.12.2018 18:00 0,4 C 90 % 1022,8 hPa 0,0 l/m N 0,00 h 0 W/m 2,7 km/h (1 Bft)
11.12.2018 19:00 -0,1 C 90 % 1023,1 hPa 0,0 l/m N 0,00 h 0 W/m 0,5 km/h (0 Bft)
11.12.2018 20:00 -0,6 C 91 % 1023,1 hPa 0,0 l/m N 0,00 h 0 W/m 0,0 km/h (0 Bft)
11.12.2018 21:00 -0,8 C 92 % 1022,8 hPa 0,0 l/m N 0,00 h 0 W/m 0,0 km/h (0 Bft)
11.12.2018 22:00 -1,2 C 93 % 1022,7 hPa 0,0 l/m N 0,00 h 0 W/m 0,0 km/h (0 Bft)
11.12.2018 23:00 -1,5 C 93 % 1022,7 hPa 0,0 l/m N 0,00 h 0 W/m 0,0 km/h (0 Bft)
12.12.2018 00:00 -1,9 C 94 % 1023,0 hPa 0,0 l/m N 0,00 h 0 W/m 0,0 km/h (0 Bft)
12.12.2018 01:00 -2,0 C 94 % 1022,7 hPa 0,0 l/m N 0,00 h 0 W/m 0,0 km/h (0 Bft)
12.12.2018 02:00 -2,2 C 94 % 1022,7 hPa 0,0 l/m N 0,00 h 0 W/m 0,0 km/h (0 Bft)
12.12.2018 03:00 -2,5 C 94 % 1022,7 hPa 0,0 l/m N 0,00 h 0 W/m 0,0 km/h (0 Bft)
12.12.2018 04:00 -2,9 C 94 % 1022,6 hPa 0,0 l/m N 0,00 h 0 W/m 0,0 km/h (0 Bft)
12.12.2018 05:00 -3,5 C 94 % 1022,4 hPa 0,0 l/m N 0,00 h 0 W/m 0,0 km/h (0 Bft)
12.12.2018 06:00 -4,1 C 95 % 1022,6 hPa 0,0 l/m N 0,00 h 0 W/m 0,0 km/h (0 Bft)
12.12.2018 07:00 -4,6 C 95 % 1022,9 hPa 0,0 l/m N 0,00 h 0 W/m 0,0 km/h (0 Bft)
12.12.2018 08:00 -4,8 C 95 % 1022,9 hPa 0,0 l/m N 0,17 h 21 W/m 0,0 km/h (0 Bft)
12.12.2018 09:00 -3,9 C 96 % 1023,1 hPa 0,0 l/m N 0,08 h 64 W/m 0,0 km/h (0 Bft)
12.12.2018 10:00 -2,2 C 97 % 1023,1 hPa 0,0 l/m N 0,33 h 138 W/m 0,0 km/h (0 Bft)
12.12.2018 11:00 -0,7 C 93 % 1022,6 hPa 0,0 l/m W-NW 0,83 h 240 W/m 2,1 km/h (1 Bft)
12.12.2018 12:00 0,6 C 88 % 1022,0 hPa 0,0 l/m NW 0,92 h 264 W/m 0,5 km/h (0 Bft)
12.12.2018 13:00 2,0 C 86 % 1021,3 hPa 0,0 l/m N 1,00 h 303 W/m 1,3 km/h (1 Bft)
12.12.2018 14:00 1,8 C 86 % 1020,9 hPa 0,0 l/m NO 0,58 h 107 W/m 9,1 km/h (2 Bft)
12.12.2018 15:00 1,2 C 88 % 1020,6 hPa 0,0 l/m NO 0,58 h 66 W/m 10,2 km/h (2 Bft)
12.12.2018 16:00 0,7 C 89 % 1020,4 hPa 0,0 l/m NO 0,25 h 12 W/m 6,1 km/h (2 Bft)
12.12.2018 17:00 -0,2 C 90 % 1020,2 hPa 0,0 l/m N 0,00 h 0 W/m 2,3 km/h (1 Bft)
12.12.2018 18:00 -0,7 C 92 % 1019,9 hPa 0,0 l/m NO 0,00 h 0 W/m 2,4 km/h (1 Bft)
12.12.2018 19:00 -0,6 C 93 % 1019,7 hPa 0,0 l/m NO 0,00 h 0 W/m 7,0 km/h (2 Bft)
12.12.2018 20:00 -0,6 C 94 % 1019,5 hPa 0,0 l/m NO 0,00 h 0 W/m 7,5 km/h (2 Bft)
12.12.2018 21:00 -0,1 C 95 % 1019,4 hPa 0,0 l/m O-NO 0,00 h 0 W/m 11,9 km/h (2 Bft)
12.12.2018 22:00 0,1 C 95 % 1018,7 hPa 0,0 l/m O-NO 0,00 h 0 W/m 11,9 km/h (2 Bft)
12.12.2018 23:00 -0,1 C 94 % 1018,3 hPa 0,0 l/m O-NO 0,00 h 0 W/m 14,2 km/h (3 Bft)
13.12.2018 00:00 -0,2 C 93 % 1018,0 hPa 0,0 l/m O-NO 0,00 h 0 W/m 15,4 km/h (3 Bft)
13.12.2018 01:00 -0,3 C 92 % 1017,5 hPa 0,0 l/m O-NO 0,00 h 0 W/m 14,6 km/h (3 Bft)
13.12.2018 02:00 -0,4 C 93 % 1017,2 hPa 0,0 l/m O-NO 0,00 h 0 W/m 12,3 km/h (3 Bft)
13.12.2018 03:00 -0,4 C 93 % 1016,7 hPa 0,0 l/m O-NO 0,00 h 0 W/m 10,3 km/h (2 Bft)
13.12.2018 04:00 -0,5 C 93 % 1016,1 hPa 0,0 l/m NO 0,00 h 0 W/m 11,7 km/h (2 Bft)
13.12.2018 05:00 -0,6 C 93 % 1015,2 hPa 0,0 l/m O-NO 0,00 h 0 W/m 14,4 km/h (3 Bft)
13.12.2018 06:00 -0,6 C 94 % 1014,6 hPa 0,0 l/m O-NO 0,00 h 0 W/m 12,4 km/h (3 Bft)
13.12.2018 07:00 -0,6 C 94 % 1014,5 hPa 0,0 l/m O-NO 0,00 h 0 W/m 13,8 km/h (3 Bft)
13.12.2018 08:00 -0,8 C 93 % 1014,6 hPa 0,0 l/m O-NO 0,00 h 12 W/m 18,9 km/h (3 Bft)
13.12.2018 09:00 -0,8 C 92 % 1014,4 hPa 0,0 l/m O-NO 0,00 h 61 W/m 19,0 km/h (3 Bft)
13.12.2018 10:00 -0,8 C 91 % 1014,1 hPa 0,0 l/m O-NO 0,00 h 47 W/m 16,4 km/h (3 Bft)
13.12.2018 11:00 -0,8 C 91 % 1013,5 hPa 0,0 l/m O-NO 0,00 h 66 W/m 15,8 km/h (3 Bft)
13.12.2018 12:00 -0,8 C 91 % 1013,0 hPa 0,0 l/m O-NO 0,00 h 87 W/m 14,2 km/h (3 Bft)
13.12.2018 13:00 -0,7 C 91 % 1012,6 hPa 0,0 l/m NO 0,08 h 134 W/m 15,8 km/h (3 Bft)
13.12.2018 14:00 -0,4 C 90 % 1012,5 hPa 0,0 l/m NO 0,25 h 82 W/m 16,9 km/h (3 Bft)
13.12.2018 15:00 -0,6 C 90 % 1012,7 hPa 0,0 l/m O-NO 0,00 h 29 W/m 16,4 km/h (3 Bft)
13.12.2018 16:00 -0,8 C 90 % 1013,0 hPa 0,0 l/m O-NO 0,00 h 9 W/m 15,3 km/h (3 Bft)
13.12.2018 17:00 -1,0 C 90 % 1013,3 hPa 0,0 l/m O-NO 0,00 h 0 W/m 14,5 km/h (3 Bft)
13.12.2018 18:00 -1,2 C 89 % 1013,3 hPa 0,0 l/m O-NO 0,00 h 0 W/m 15,2 km/h (3 Bft)
13.12.2018 19:00 -1,3 C 87 % 1013,4 hPa 0,0 l/m O-NO 0,00 h 0 W/m 16,2 km/h (3 Bft)
13.12.2018 20:00 -1,5 C 86 % 1013,6 hPa 0,0 l/m O-NO 0,00 h 0 W/m 15,3 km/h (3 Bft)
13.12.2018 21:00 -1,7 C 86 % 1013,8 hPa 0,0 l/m O 0,00 h 0 W/m 15,6 km/h (3 Bft)
13.12.2018 22:00 -1,8 C 86 % 1014,1 hPa 0,0 l/m O-NO 0,00 h 0 W/m 14,6 km/h (3 Bft)
13.12.2018 23:00 -1,9 C 86 % 1014,3 hPa 0,0 l/m O-NO 0,00 h 0 W/m 15,2 km/h (3 Bft)
14.12.2018 00:00 -2,1 C 87 % 1014,6 hPa 0,0 l/m O 0,00 h 0 W/m 13,8 km/h (3 Bft)
14.12.2018 01:00 -2,2 C 87 % 1014,8 hPa 0,0 l/m O 0,00 h 0 W/m 14,2 km/h (3 Bft)
14.12.2018 02:00 -2,3 C 87 % 1015,0 hPa 0,0 l/m O 0,00 h 0 W/m 13,8 km/h (3 Bft)
14.12.2018 03:00 -2,3 C 86 % 1015,2 hPa 0,0 l/m O 0,00 h 0 W/m 12,9 km/h (3 Bft)
14.12.2018 04:00 -2,2 C 86 % 1015,3 hPa 0,0 l/m O-NO 0,00 h 0 W/m 12,2 km/h (2 Bft)
14.12.2018 05:00 -2,3 C 86 % 1015,6 hPa 0,0 l/m O 0,00 h 0 W/m 12,6 km/h (3 Bft)
14.12.2018 06:00 -2,3 C 87 % 1015,8 hPa 0,0 l/m O 0,00 h 0 W/m 11,8 km/h (2 Bft)
14.12.2018 07:00 -2,4 C 87 % 1016,3 hPa 0,0 l/m O-NO 0,00 h 0 W/m 11,4 km/h (2 Bft)
14.12.2018 08:00 -2,6 C 87 % 1016,8 hPa 0,0 l/m O-NO 0,00 h 9 W/m 13,7 km/h (3 Bft)
14.12.2018 09:00 -2,7 C 87 % 1017,3 hPa 0,0 l/m O-NO 0,00 h 30 W/m 13,0 km/h (3 Bft)
14.12.2018 10:00 -2,5 C 86 % 1017,9 hPa 0,0 l/m O-NO 0,00 h 51 W/m 12,9 km/h (3 Bft)
14.12.2018 11:00 -2,4 C 86 % 1018,4 hPa 0,0 l/m O 0,00 h 56 W/m 12,6 km/h (3 Bft)
14.12.2018 12:00 -2,3 C 85 % 1018,5 hPa 0,0 l/m O-NO 0,00 h 76 W/m 12,6 km/h (3 Bft)
14.12.2018 13:00 -2,3 C 83 % 1018,2 hPa 0,0 l/m O 0,00 h 70 W/m 13,3 km/h (3 Bft)
14.12.2018 14:00 -2,3 C 84 % 1018,1 hPa 0,0 l/m O 0,00 h 42 W/m 12,9 km/h (3 Bft)
14.12.2018 15:00 -2,4 C 84 % 1018,7 hPa 0,0 l/m O-SO 0,00 h 19 W/m 13,4 km/h (3 Bft)
14.12.2018 16:00 -2,6 C 84 % 1019,5 hPa 0,0 l/m O-SO 0,00 h 6 W/m 11,5 km/h (2 Bft)
14.12.2018 17:00 -2,6 C 86 % 1020,3 hPa 0,0 l/m O-NO 0,00 h 0 W/m 12,5 km/h (3 Bft)
14.12.2018 18:00 -2,8 C 85 % 1020,9 hPa 0,0 l/m O-SO 0,00 h 0 W/m 9,9 km/h (2 Bft)
14.12.2018 19:00 -2,9 C 85 % 1021,5 hPa 0,0 l/m O 0,00 h 0 W/m 9,3 km/h (2 Bft)
14.12.2018 20:00 -2,9 C 85 % 1022,1 hPa 0,0 l/m O-SO 0,00 h 0 W/m 6,8 km/h (2 Bft)
14.12.2018 21:00 -2,9 C 85 % 1022,6 hPa 0,0 l/m O-SO 0,00 h 0 W/m 3,9 km/h (1 Bft)
14.12.2018 22:00 -2,9 C 84 % 1022,7 hPa 0,0 l/m O-SO 0,00 h 0 W/m 3,8 km/h (1 Bft)
14.12.2018 23:00 -2,9 C 84 % 1022,5 hPa 0,0 l/m O-SO 0,00 h 0 W/m 3,5 km/h (1 Bft)
15.12.2018 00:00 -3,0 C 84 % 1022,5 hPa 0,0 l/m O 0,00 h 0 W/m 2,5 km/h (1 Bft)
15.12.2018 01:00 -3,1 C 83 % 1022,7 hPa 0,0 l/m O 0,00 h 0 W/m 4,8 km/h (1 Bft)
15.12.2018 02:00 -3,2 C 83 % 1023,1 hPa 0,0 l/m O-SO 0,00 h 0 W/m 5,2 km/h (1 Bft)
15.12.2018 03:00 -3,2 C 82 % 1023,3 hPa 0,0 l/m O-SO 0,00 h 0 W/m 4,2 km/h (1 Bft)
15.12.2018 04:00 -3,2 C 82 % 1023,5 hPa 0,0 l/m O-SO 0,00 h 0 W/m 4,7 km/h (1 Bft)
15.12.2018 05:00 -3,2 C 82 % 1023,9 hPa 0,0 l/m O-SO 0,00 h 0 W/m 2,5 km/h (1 Bft)
15.12.2018 06:00 -3,3 C 81 % 1024,1 hPa 0,0 l/m O-SO 0,00 h 0 W/m 7,4 km/h (2 Bft)
15.12.2018 07:00 -3,5 C 80 % 1024,1 hPa 0,0 l/m O 0,00 h 0 W/m 7,1 km/h (2 Bft)
15.12.2018 08:00 -3,4 C 80 % 1024,3 hPa 0,0 l/m O 0,00 h 13 W/m 8,2 km/h (2 Bft)
15.12.2018 09:00 -3,3 C 81 % 1024,5 hPa 0,0 l/m O 0,00 h 37 W/m 12,9 km/h (3 Bft)
15.12.2018 10:00 -3,3 C 80 % 1024,8 hPa 0,0 l/m O-SO 0,00 h 62 W/m 12,1 km/h (2 Bft)
15.12.2018 11:00 -3,3 C 79 % 1024,3 hPa 0,0 l/m O-SO 0,00 h 110 W/m 13,7 km/h (3 Bft)
15.12.2018 12:00 -2,9 C 79 % 1023,7 hPa 0,0 l/m SO 0,00 h 143 W/m 10,5 km/h (2 Bft)
15.12.2018 13:00 -2,1 C 78 % 1022,9 hPa 0,0 l/m O-SO 1,00 h 286 W/m 12,1 km/h (2 Bft)
15.12.2018 14:00 -1,7 C 77 % 1022,7 hPa 0,0 l/m O 0,92 h 218 W/m 12,9 km/h (3 Bft)
15.12.2018 15:00 -2,1 C 78 % 1022,8 hPa 0,0 l/m O-NO 1,00 h 80 W/m 12,7 km/h (3 Bft)
15.12.2018 16:00 -2,7 C 80 % 1022,8 hPa 0,0 l/m O 0,25 h 12 W/m 10,5 km/h (2 Bft)
15.12.2018 17:00 -3,4 C 83 % 1022,5 hPa 0,0 l/m O 0,00 h 0 W/m 3,5 km/h (1 Bft)
15.12.2018 18:00 -4,0 C 84 % 1022,1 hPa 0,0 l/m O 0,00 h 0 W/m 2,4 km/h (1 Bft)
15.12.2018 19:00 -4,5 C 86 % 1021,6 hPa 0,0 l/m N 0,00 h 0 W/m 2,9 km/h (1 Bft)
15.12.2018 20:00 -4,9 C 86 % 1020,8 hPa 0,0 l/m N 0,00 h 0 W/m 0,0 km/h (0 Bft)
15.12.2018 21:00 -5,9 C 86 % 1020,1 hPa 0,0 l/m N 0,00 h 0 W/m 0,0 km/h (0 Bft)
15.12.2018 22:00 -6,6 C 88 % 1019,5 hPa 0,0 l/m N 0,00 h 0 W/m 0,0 km/h (0 Bft)
15.12.2018 23:00 -6,8 C 89 % 1018,9 hPa 0,0 l/m N 0,00 h 0 W/m 0,0 km/h (0 Bft)
16.12.2018 00:00 -6,4 C 91 % 1017,8 hPa 0,0 l/m N 0,00 h 0 W/m 0,0 km/h (0 Bft)
16.12.2018 01:00 -5,8 C 92 % 1017,1 hPa 0,0 l/m N 0,00 h 0 W/m 0,0 km/h (0 Bft)
16.12.2018 02:00 -5,5 C 92 % 1016,4 hPa 0,0 l/m N 0,00 h 0 W/m 0,0 km/h (0 Bft)
16.12.2018 03:00 -5,1 C 92 % 1015,8 hPa 0,0 l/m N 0,00 h 0 W/m 0,3 km/h (0 Bft)
16.12.2018 04:00 -5,0 C 92 % 1015,1 hPa 0,0 l/m O 0,00 h 0 W/m 1,7 km/h (1 Bft)
16.12.2018 05:00 -4,7 C 92 % 1014,5 hPa 0,0 l/m N 0,00 h 0 W/m 1,5 km/h (1 Bft)
16.12.2018 06:00 -4,6 C 92 % 1014,2 hPa 1,6 l/m N 0,00 h 0 W/m 0,0 km/h (0 Bft)
16.12.2018 07:00 -4,2 C 93 % 1014,2 hPa 1,0 l/m N 0,00 h 0 W/m 0,7 km/h (0 Bft)
16.12.2018 08:00 -3,7 C 94 % 1014,2 hPa 1,0 l/m N 0,00 h 8 W/m 1,1 km/h (0 Bft)
16.12.2018 09:00 -2,8 C 95 % 1014,2 hPa 0,8 l/m N 0,00 h 20 W/m 0,0 km/h (0 Bft)
16.12.2018 10:00 -1,8 C 96 % 1014,5 hPa 0,4 l/m O-SO 0,00 h 34 W/m 6,7 km/h (2 Bft)
16.12.2018 11:00 -0,8 C 96 % 1014,6 hPa 0,0 l/m S 0,00 h 43 W/m 9,0 km/h (2 Bft)
16.12.2018 12:00 0,6 C 96 % 1014,4 hPa 0,0 l/m S-SW 0,25 h 125 W/m 12,4 km/h (3 Bft)
16.12.2018 13:00 1,6 C 96 % 1014,3 hPa 0,0 l/m SW 0,58 h 159 W/m 17,4 km/h (3 Bft)
16.12.2018 14:00 1,7 C 97 % 1014,3 hPa 0,0 l/m SW 0,08 h 88 W/m 12,4 km/h (3 Bft)
16.12.2018 15:00 1,8 C 97 % 1014,6 hPa 0,0 l/m SW 0,00 h 41 W/m 12,9 km/h (3 Bft)
16.12.2018 16:00 1,7 C 97 % 1015,1 hPa 0,0 l/m SW 0,00 h 7 W/m 6,6 km/h (2 Bft)
16.12.2018 17:00 1,8 C 97 % 1015,3 hPa 0,0 l/m N 0,00 h 0 W/m 1,2 km/h (1 Bft)
16.12.2018 18:00 1,8 C 97 % 1015,6 hPa 0,0 l/m N 0,00 h 0 W/m 0,9 km/h (0 Bft)
16.12.2018 19:00 1,7 C 97 % 1015,5 hPa 0,0 l/m N 0,00 h 0 W/m 0,0 km/h (0 Bft)
16.12.2018 20:00 1,3 C 97 % 1015,7 hPa 0,0 l/m N 0,00 h 0 W/m 0,0 km/h (0 Bft)
16.12.2018 21:00 1,1 C 97 % 1015,8 hPa 0,0 l/m N 0,00 h 0 W/m 0,3 km/h (0 Bft)
16.12.2018 22:00 0,9 C 98 % 1015,7 hPa 0,0 l/m N 0,00 h 0 W/m 0,0 km/h (0 Bft)
16.12.2018 23:00 0,8 C 97 % 1015,8 hPa 0,0 l/m N 0,00 h 0 W/m 0,0 km/h (0 Bft)
Min-Datum _ 15.12.18 15.12.18 13.12.18 - - - - 10.12.18
_ Min-Zeit 22:45 14:20 14:00 - - - - 09:55
Minimum _ -6,8 C 76 % 1012,3 hPa - - - - 0,0 km/h (0 Bft)
Max-Datum _ 10.12.18 16.12.18 15.12.18 11.12.18 - 10.12.18 10.12.18 10.12.18
_ Max-Zeit 14:30 18:30 10:25 00:00 - 09:20 12:25 12:45
Maximum _ 4,8 C 98 % 1024,9 hPa 2,4 l/m - 0,08 h 469 W/m 30,6 km/h
W-NW (5 Bft)
Durchschnitt _ -1,0 C 90 % 1019,3 hPa #10,6 l/m O-NO #12:30 h 82 W/m 8,3 km/h (2 Bft)